Location: Mississauga
(43.5802°N, 79.6166°W)
Time: 16:05:18
(UTC-05:00)

Cosmos 1437 Rocket - Visible Passes

Search period start: 22 November 2014 00:00
Search period end: 02 December 2014 00:00
Orbit: 524 x 566 km, 81.2° (Epoch: 22 November)

Date Brightness Start Highest point End Pass type
(mag) Time Alt. Az. Time Alt. Az. Time Alt. Az.
24 Nov 4.6 06:51:09 10° N 06:54:48 32° ENE 06:58:22 10° SE visible
25 Nov 4.5 06:45:14 10° N 06:48:56 34° ENE 06:52:33 10° SE visible
26 Nov 4.4 06:39:18 10° N 06:43:03 36° ENE 06:46:42 10° SE visible
27 Nov 4.2 06:33:23 10° N 06:37:09 39° ENE 06:40:51 10° SE visible
28 Nov 4.1 06:27:26 10° N 06:31:15 42° ENE 06:34:59 10° SSE visible
29 Nov 3.9 06:21:30 10° N 06:25:21 45° ENE 06:29:06 10° SSE visible
30 Nov 3.8 06:15:34 10° N 06:19:26 48° ENE 06:23:13 10° SSE visible
01 Dec 3.6 06:09:37 10° N 06:13:30 51° ENE 06:17:19 10° SSE visible
